Location: Waco, TX
(31.5480°N, 97.1670°W)
Time: 03:29:19
(UTC-06:00)

ISS - Pass Details

Date: 14 February 2018
Orbit: 403 x 407 km, 51.6° (Epoch: 19 February)

Event Time Altitude Azimuth Distance (km) Brightness Sun altitude
Rises 17:35:48 0° 330° (NNW) 2,316 0.2 7.1°
Reaches altitude 10° 17:38:20 10° 350° (N) 1,454 -1.1 6.6°
Maximum altitude 17:40:40 18° 36° (NE) 1,067 -2.1 6.1°
Drops below altitude 10° 17:43:00 10° 82° (E) 1,451 -1.6 5.7°
Sets 17:45:31 0° 102° (ESE) 2,308 -0.5 5.2°
